Regional Weather Roundup
Issued by NWS

Home | Current Version | Previous Version | Text Only | Print | Product List | Glossary Off
Versions: 1 2 3 4 5 6 7 8 9 10 11 12 13 14 15 16 17 18 19 20 21 22 23 24 25 26 27 28 29 30 31 32 33 34 35 36 37 38 39 40 41 42 43 44 45 46 47 48 49 50

000
ASUS43 KMPX 300601
RWRMN
WEATHER ROUNDUP FOR MINNESOTA
NATIONAL WEATHER SERVICE TWIN CITIES/CHANHASSEN MN
100 AM CDT SAT AUG 30 2014


NOTE: "FAIR" INDICATES FEW OR NO CLOUDS BELOW 12,000 FEET WITH NO
SIGNIFICANT WEATHER AND/OR OBSTRUCTIONS TO VISIBILITY. N/A MEANS
CURRENT SKY AND/OR WEATHER CONDITIONS ARE NOT AVAILABLE.

MNZ060>063-068>070-300700-
   Twin Cities Metro

CITY           SKY/WX    TMP DP  RH WIND       PRES   REMARKS
TWIN CITIES    LGT RAIN  68  67  96 E3        29.77S FOG
6HR MIN TEMP:  68; 6HR MAX TEMP:  72; 6HR PCP:  0.11;

ST PAUL        LGT RAIN  67  67 100 S3        29.77S
CRYSTAL        LGT RAIN  70  67  90 NW3       29.76S
BLAINE         RAIN      70  70 100 CALM      29.78S
LAKEVILLE      RAIN      66  64  94 N3        29.78R
EDEN PRAIRIE   LGT RAIN  70  68  93 CALM      29.77R
6HR MIN TEMP:  70; 6HR MAX TEMP:  72; 6HR PCP:  0.02;

SOUTH ST PAUL  RAIN      68  66  94 CALM      29.77S
LAKE ELMO      RAIN      66  66 100 CALM      29.78S
$$
MNZ001>005-007-008-013>017-022>024-027-028-300700-
   Northwest Minnesota

CITY           SKY/WX    TMP DP  RH WIND       PRES   REMARKS
BEMIDJI        CLOUDY    60  58  93 N10       29.85S
HALLOCK        FAIR      54  48  82 N8        29.93S
ROSEAU         FAIR      52  46  82 N7        29.92R
WARROAD        FAIR      54  50  87 NW6       29.91S
THIEF RVR FALL CLOUDY    57  52  82 N14       29.90S
CROOKSTON      MOCLDY    59  54  82 N9        29.91S
FOSSTON        CLOUDY    57  55  94 N9        29.89R
DETROIT LAKES  LGT RAIN  61  61 100 N10G17    29.86R
MOORHEAD       CLOUDY    61  61 100 N12       29.88S
PARK RAPIDS    CLOUDY    66  63  90 N10       29.83R
MAHNOMEN       CLOUDY    59  57  93 N10       29.87R
$$
MNZ006-009>011-018-025>026-300700-
   North Central Minnesota

CITY           SKY/WX    TMP DP  RH WIND       PRES   REMARKS
BAUDETTE       FAIR      58  56  93 N10       29.87S
FLAG ISLAND    FAIR      61  55  82 N15       29.90R
INTL FALLS     CLOUDY    59  55  87 N10       29.84S
6HR MIN TEMP:  59; 6HR MAX TEMP:  68; 6HR PCP:  0.01;

WASKISH        CLOUDY    57  55  94 N5        29.87R
BIG FORK       CLOUDY    64  63  94 N6        29.83R
LONGVILLE      CLOUDY    61  59  94 CALM      29.82R FOG
GRAND RAPIDS   CLOUDY    63  61  94 CALM      29.82R
CRANE LAKE     FOG       55  55 100 CALM      29.84R VSB 3/4
ORR            RAIN      63  59  88 CALM      29.80R
COOK           CLOUDY    61  61 100 CALM      29.82S
WALKER         CLOUDY    63  62  96 N6        29.82R
$$
MNZ012-019>021-037-300700-
   Northeast Minnesota

CITY           SKY/WX    TMP DP  RH WIND       PRES   REMARKS
DULUTH         CLOUDY    64  61  90 NE3       29.80S
6HR MIN TEMP:  62; 6HR MAX TEMP:  64; 6HR PCP: TRACE;

ELY            FAIR      57  55  94 CALM      29.82R
HIBBING        CLOUDY    61  59  93 CALM      29.82R FOG
EVELETH        CLOUDY    59  59 100 CALM      29.83R FOG
DULUTH HARBOR  CLOUDY    63  61  94 CALM      29.80R
TWO HARBORS    CLOUDY    61  55  82 CALM      29.78S
SILVER BAY     FAIR      59  59 100 N3        29.78S
GRAND MARAIS     N/A     61  59  93 CALM      29.78S
G MARAIS ARPRT CLOUDY    57  54  88 N9        29.81S
$$
MNZ029>031-032-039>041-046>048-054>057-064-300700-
   West Central Minnesota

CITY           SKY/WX    TMP DP  RH WIND       PRES   REMARKS
FERGUS FALLS   CLOUDY    63  61  94 NW9       29.84S
WHEATON        CLOUDY    61  57  88 NW12      29.87S
MORRIS         CLOUDY    66  64  94 NW13      29.83R
ALEXANDRIA     CLOUDY    66  64  93 N5        29.84S
ELBOW LAKE     CLOUDY    63  62  98 NW10      29.84R
WADENA         CLOUDY    63  63 100 NW3       29.82S
GLENWOOD       FAIR      64  64 100 NW5       29.83S
APPLETON       MOCLDY    68  64  88 NW13      29.82S
BENSON         CLOUDY    64  63  94 CALM      29.82S
ORTONVILLE     CLOUDY    64  61  88 NW13      29.85R
MADISON        FAIR      70  66  88 NW14      29.84R
WILLMAR        FAIR      66  64  94 NW5       29.83R
$$
MNZ033>034-036-042>043-049>051-058-059-300700-
   Central Minnesota

CITY           SKY/WX    TMP DP  RH WIND       PRES   REMARKS
ST CLOUD       CLOUDY    70  66  87 E3        29.79S
6HR MIN TEMP:  69; 6HR MAX TEMP:  73;

SAUK CENTRE    MOCLDY    64  64 100 NW5       29.82R
PAYNESVILLE    HVY RAIN  64  64 100 CALM      29.81R
AITKIN         CLOUDY    66  61  82 CALM      29.80S
PINE RIVER     CLOUDY    64  64 100 CALM      29.85S FOG
BRAINERD       MOCLDY    64  64 100 CALM      29.81S
STAPLES        MOCLDY    64  63  94 NW3       29.82R
LONG PRAIRIE   FAIR      63  63 100 NW5       29.82S
LITTLE FALLS   CLOUDY    63  61  94 CALM      29.81R FOG
LITCHFIELD     FAIR      70  70 100 CALM      29.80S
BUFFALO        CLOUDY    68  66  92 N5        29.80R
MAPLE LAKE     CLOUDY    69  69  98 CALM      29.81R
$$
MNZ037-044-045-052-053-300700-
   East Central Minnesota

CITY           SKY/WX    TMP DP  RH WIND       PRES   REMARKS
PRINCETON      CLOUDY    68  66  94 CALM      29.80R
MORA           CLOUDY    64  64 100 CALM      29.81R
CAMBRIDGE      MOCLDY    70  61  73 CALM      29.78R
RUSH CITY      CLOUDY    66  65  95 CALM      29.79S
MOOSE LAKE     CLOUDY    63  61  94 CALM      29.78F FOG
HINCKLEY       CLOUDY    64  64 100 CALM      29.79S
CLOQUET        CLOUDY    63  61  94 CALM      29.80S FOG
MCGREGOR       CLOUDY    64  63  94 CALM      29.81S
$$
MNZ071>073-080-081-089-090-097-098-300700-
   Southwest Minnesota

CITY           SKY/WX    TMP DP  RH WIND       PRES   REMARKS
MONTEVIDEO     FAIR      64  64 100 NW5       29.83R
GRANITE FALLS  FAIR      65  65 100 NW6       29.83R
CANBY          HVY RAIN  66  65  95 NW15      29.85S
MARSHALL       CLOUDY    66  64  94 NW7       29.81S
REDWOOD FALLS  FAIR      67  66  97 NW7       29.80R
OLIVIA         FAIR      63  61  94 NW5       29.80R
PIPESTONE      MOCLDY    66  64  94 CALM      29.84S
WINDOM         CLOUDY    66  64  94 CALM      29.81S
WORTHINGTON    MOCLDY    64  63  94 W3        29.84R
JACKSON        FAIR      64  63  94 NW5       29.81F
TRACY          FAIR      66  65  97 CALM      29.82S FOG
SLAYTON        CLOUDY    65  65 100 CALM      29.84S FOG
$$
MNZ065>067-074>077-082>085-091>093-300700-
   South Central Minnesota

CITY           SKY/WX    TMP DP  RH WIND       PRES   REMARKS
MANKATO        FAIR      68  63  83 NW7       29.77S
NEW ULM        MOCLDY    64  64 100 CALM      29.79S
ST JAMES       LGT RAIN  66  64  94 W5        29.80S
FAIRMONT       CLOUDY    64  61  88 NW6       29.80R
GLENCOE        CLOUDY    69  67  91 NW3       29.79R
FARIBAULT      LGT RAIN  70  64  83 N3        29.77S
OWATONNA       LGT RAIN  70  66  88 NW6       29.77S
WASECA         LGT RAIN  63  61  94 SW5       29.78S
ALBERT LEA     LGT RAIN  66  66 100 CALM      29.79R
$$
MNZ078>079-086>088-094>096-300700-
   Southeast Minnesota

CITY           SKY/WX    TMP DP  RH WIND       PRES   REMARKS
ROCHESTER      LGT RAIN  65  63  93 S5        29.79F
6HR MIN TEMP:  65; 6HR MAX TEMP:  75; 6HR PCP:  0.41;

RED WING       LGT RAIN  66  66 100 CALM      29.75R
STANTON        HVY RAIN  68  66  91 NE8       29.75F
DODGE CENTER   CLOUDY    66  66 100 S3        29.78R
WINONA         HVY RAIN  70  68  94 CALM      29.76S
AUSTIN         CLOUDY    64  64 100 CALM      29.78S FOG
PRESTON        LGT RAIN  65  65 100 CALM      29.78F
$$
ABBREVIATIONS USED IN REMARKS
   TC - TEMPERATURES IN CELSIUS
  WCI - WIND CHILL INDEX
   HX - HEAT INDEX
  VSB - VISIBILITY
$$



USA.gov is the U.S. government's official web portal to all federal, state and local government web resources and services.